Regional Weather Roundup
Issued by NWS Midland/Odessa, TX

Home | Current Version | Previous Version | Text Only | Print | Product List | Glossary On
Versions: 1 2 3 4 5 6 7 8 9 10 11 12 13 14 15 16 17 18 19 20 21 22 23 24 25 26 27 28 29 30 31 32 33 34 35 36 37 38 39 40 41 42 43 44 45 46 47 48 49 50
000
ASUS44 KMAF 200410
RWRMAF
MIDLAND AREA WEATHER ROUNDUP
NATIONAL WEATHER SERVICE MIDLAND TX
1100 PM CDT SAT AUG 19 2017

...IN SOUTHWEST TEXAS AND SOUTHEAST NEW MEXICO...

CITY           SKY/WX    TMP DP  RH WIND       PRES   REMARKS
ALPINE         CLOUDY    71  60  68 SW5       30.21R
ANDREWS        FAIR      80  59  47 S8        30.07R
ARTESIA        CLOUDY    81  59  47 S6        30.06R
BIG SPRING     CLEAR     81  66  60 E6        30.06R
CARLSBAD       CLOUDY    73  70  90 S5        30.05R
DRYDEN           N/A     83  70  64 CALM      29.99R
FORT STOCKTON  CLOUDY    81  58  45 W5        30.07R
GUAD PASS      CLOUDY    72  57  59 CALM      30.22R
HOBBS          MOCLDY    77  63  61 CALM      30.08S
MARFA          CLOUDY    71  61  70 CALM      30.20R
MIDLAND AIRPK  CLEAR     86  60  41 SE6       30.06R
MIDLAND INTL   CLEAR     82  61  48 SE7       30.05R
ODESSA         CLEAR     84  60  44 SE9       30.06R
PECOS          LGT RAIN  78  66  65 SE5       30.03R
PRESIDIO       FAIR      82  62  50 NE5       30.05R
SEMINOLE       PTCLDY    79  62  56 SW6       30.09R
SNYDER         CLEAR     76  65  68 E10       30.04S
WINK           MOCLDY    79  63  57 CALM      30.03R
$$
...OTHER STATIONS IN TEXAS...

CITY           SKY/WX    TMP DP  RH WIND       PRES   REMARKS
ABILENE        CLEAR     76  72  87 N3        30.02R
AMARILLO       CLEAR     77  63  61 S15       30.07R
AUSTIN         CLEAR     88  68  51 S10       29.97R
BROWNSVILLE    CLEAR     82  78  88 SE7       29.98R
CORPUS CHRISTI PTCLDY    83  77  82 SE8       29.98R
DALLAS FTW     MOCLDY    88  71  57 SE9       29.95R
DEL RIO        CLEAR     89  60  37 E8        29.93R
EL PASO        CLOUDY    75  61  61 N18G28    30.10R
HOUSTON INT    CLEAR     86  73  65 S6        29.99R
LUBBOCK        MOCLDY    76  64  66 SE13      30.07R
SAN ANGELO     MOCLDY    83  66  56 E3        30.00R
SAN ANTONIO    PTCLDY    86  68  54 SE14      30.00R
WACO           CLEAR     86  69  56 S6        29.96R
WICHITA FALLS  NOT AVBL
$$
...OTHER LOCATIONS IN NEW MEXICO...

CITY           SKY/WX    TMP DP  RH WIND       PRES   REMARKS
ALAMOGORDO     CLOUDY    72  57  60 SW14      30.14R
ALBUQUERQUE    CLOUDY    77  45  32 E16       30.15R
CANNON AFB     CLOUDY    75  64  70 SW5       30.13R
CLOVIS         PTCLDY    73  62  68 SW8       30.12R
HOLLOMAN AFB   MOCLDY    76  58  53 SW15      30.14R
ROSWELL        PTCLDY    79  59  50 W7        30.07R
RUIDOSO        CLOUDY    64  48  55 NW7       30.33S
SANTA FE       CLOUDY    70  46  42 SE8       30.23R
TRUTH OR CONSE CLOUDY    80  54  40 S12       30.10S
TUCUMCARI      PTCLDY    76  54  46 E5        30.06R
$$




USA.gov is the U.S. government's official web portal to all federal, state and local government web resources and services.